Marshfield, WI

1:50 AM CST on February 11, 2016 (GMT -0600)
Marshfield Municipal

Weather History for KMFI - April, 2013

Change the Weather History Date:

Tuesday, April 16, 2013

  Actual Average Record
Temperature  
Mean Temperature 38 °F -  
Max Temperature 43 °F 58 °F 82 °F (2002)
Min Temperature 32 °F 33 °F 20 °F (1962)
Degree Days  
Heating Degree Days 28    
Moisture  
Dew Point 28 °F    
Average Humidity 71    
Maximum Humidity 82    
Minimum Humidity 56    
Precipitation  
Precipitation 0.00 in - - ()
Sea Level Pressure  
Sea Level Pressure 30.18 in    
Wind  
Wind Speed 7 mph (WNW)    
Max Wind Speed 10 mph    
Max Gust Speed 18 mph    
Visibility 10 miles    
Events      
Averages and records for this station are not official NWS values.
T = Trace of Precipitation, MM = Missing Value Source: NWS Daily Summary

Daily Weather History Graph

Daily Weather History Graph

Search for Another Location

Airport or City:

Trip Planner

Search our weather history database for the weather conditions in past years. The results will help you decide how hot, cold, wet, or windy it might be!

Date:

Astronomy

Apr. 16, 2013 Rise Set
Actual Time 6:14 AM CDT 7:47 PM CDT
Civil Twilight 5:43 AM CDT 8:17 PM CDT
Nautical Twilight 5:06 AM CDT 8:55 PM CDT
Astronomical Twilight 4:27 AM CDT 9:34 PM CDT
Moon 10:26 AM CDT (4/16) 12:50 AM CDT (4/16)
Length of Visible Light 14h 34m
Length of Day
13h 32m
Waxing Crescent, 33% of the Moon is Illuminated
Apr 16
Waxing Crescent
Apr 18
First Quarter
Apr 25
Full
May 2
Last Quarter
May 9
New

Hourly Weather History & Observations

Time (CDT) Temp. Windchill Dew Point Humidity Pressure Visibility Wind Dir Wind Speed Gust Speed Precip Events Conditions
12:54 AM 32.0 °F 25.6 °F 26.1 °F 79% 29.97 in 10.0 mi WSW 6.9 mph - N/A   Overcast
1:54 AM 32.0 °F 24.8 °F 26.1 °F 79% 29.97 in 10.0 mi WSW 8.1 mph - N/A   Overcast
2:54 AM 32.0 °F 24.8 °F 26.1 °F 79% 29.96 in 10.0 mi West 8.1 mph - N/A   Overcast
3:54 AM 32.0 °F 25.6 °F 27.0 °F 82% 29.99 in 10.0 mi WSW 6.9 mph - N/A   Overcast
4:54 AM 32.0 °F 26.4 °F 27.0 °F 82% 30.01 in 10.0 mi WSW 5.8 mph - N/A   Overcast
5:54 AM 33.1 °F 27.7 °F 27.0 °F 78% 30.03 in 10.0 mi West 5.8 mph - N/A   Overcast
7:54 AM 33.1 °F 26.1 °F 27.0 °F 78% 30.12 in 10.0 mi West 8.1 mph - N/A   Overcast
8:54 AM 34.0 °F 27.2 °F 27.0 °F 75% 30.13 in 10.0 mi West 8.1 mph - N/A   Overcast
9:54 AM 34.0 °F 26.6 °F 27.0 °F 75% 30.17 in 10.0 mi WNW 9.2 mph - N/A   Overcast
10:54 AM 35.1 °F 29.3 °F 28.0 °F 76% 30.20 in 10.0 mi WNW 6.9 mph - N/A   Overcast
11:54 AM 37.9 °F 30.9 °F 28.9 °F 70% 30.21 in 10.0 mi WNW 10.4 mph - N/A   Overcast
12:54 PM 39.0 °F 32.8 °F 28.9 °F 67% 30.23 in 10.0 mi West 9.2 mph 18.4 mph N/A   Overcast
1:54 PM 39.9 °F 33.4 °F 30.0 °F 68% 30.24 in 10.0 mi NW 10.4 mph - N/A   Overcast
2:08 PM 39.2 °F 35.0 °F 28.4 °F 65% 30.19 in 10.0 mi West 5.8 mph 16.1 mph N/A   Overcast
2:54 PM 42.1 °F 37.1 °F 28.9 °F 60% 30.25 in 10.0 mi NNW 8.1 mph - N/A   Mostly Cloudy
3:54 PM 42.1 °F 36.1 °F 28.9 °F 60% 30.25 in 10.0 mi NW 10.4 mph - N/A   Clear
4:54 PM 42.1 °F 36.6 °F 28.9 °F 60% 30.25 in 10.0 mi NW 9.2 mph - N/A   Clear
5:54 PM 43.0 °F 39.5 °F 28.0 °F 56% 30.27 in 10.0 mi WNW 5.8 mph - N/A   Clear
6:54 PM 41.0 °F 38.0 °F 28.0 °F 60% 30.27 in 10.0 mi WNW 4.6 mph - N/A   Clear
7:54 PM 39.0 °F 36.8 °F 27.0 °F 62% 30.29 in 10.0 mi West 3.5 mph - N/A   Clear
8:54 PM 35.1 °F - 27.0 °F 72% 30.31 in 10.0 mi Calm Calm - N/A   Clear
9:54 PM 34.0 °F 31.0 °F 27.0 °F 75% 30.33 in 10.0 mi North 3.5 mph - N/A   Clear
10:54 PM 35.1 °F 28.6 °F 27.0 °F 72% 30.33 in 10.0 mi North 8.1 mph - N/A   Clear
11:54 PM 33.1 °F 26.9 °F 26.1 °F 75% 30.35 in 10.0 mi North 6.9 mph - N/A   Clear